Flag for Canada Weather past 2 weeks in Pond Inlet, Nunavut Territory, Canada

Now
46 °F

Overcast.


Feels Like: 45 °F
Forecast: 45 / 51 °F
Wind: 3 mph from Southwest

Location: Pond Inlet

Current Time: Jul 29, 2014 at 7:19:45 AM

Latest Report: Jul 29, 2014 at 7:00 AM


Visibility: 9 mi

Pressure: 30.10 "Hg

Humidity: 87%

Dew point: 43 °F

Location of Pond InletLocation

Historic Weather in Pond Inlet — Graph

°F

Pond Inlet temperature yesterday

Maximum temperature yesterday: 46 °F (at 2:00 PM)
Minimum temperature yesterday: 36 °F (at 4:00 AM)
Average temperature yesterday: 41 °F

Past Weeks' High & Low Weather Summary

 TemperatureHumidityPressure
High61 °F (Jul 25, 4:00 PM)100% (Jul 15, 12:03 AM)30.10 "Hg (Jul 15, 12:03 AM)
Low36 °F (Jul 28, 4:00 AM)51% (Jul 14, 2:00 PM)29.36 "Hg (Jul 18, 12:00 PM)
Average48 °F82%29.76 "Hg
* Reported Jul 14 6:00 AM — Jul 29 6:00 AM, Pond Inlet, Weather by CustomWeather, © 2014

Note: Actual official high and low records may vary slightly from our data, if they occured in-between our weather recording intervals... More about our weather records

Advertising

Pond Inlet weather history for previous 24 hours

 ConditionsComfort  
Time TempWeatherWind HumidityBarometerVisibility
6:00 AM
Jul 29
43 °FOvercast.2 mph93%30.10 "Hg9 mi
5:00 AM43 °FOvercast.No wind93%30.09 "Hg9 mi
4:00 AM41 °FPartly sunny.2 mph93%30.08 "Hg9 mi
3:00 AM45 °FOvercast.3 mph87%30.07 "Hg9 mi
2:00 AM45 °FMore clouds than sun.No wind87%30.07 "Hg9 mi
1:00 AM45 °FOvercast.9 mph81%30.06 "Hg9 mi
12:00 AM45 °FOvercast.3 mph87%30.06 "Hg9 mi
11:00 PM
Jul 28
46 °FOvercast.2 mph82%30.06 "Hg9 mi
10:00 PM45 °FSunny.3 mph87%30.05 "Hg9 mi
9:00 PM43 °FMostly cloudy.6 mph87%30.06 "Hg8 mi
8:00 PM45 °FOvercast.3 mph81%30.05 "Hg9 mi
7:00 PM43 °FOvercast.5 mph87%30.05 "Hg9 mi
6:00 PM43 °FPartly sunny.2 mph87%30.06 "Hg20 mi
4:00 PM43 °FPartly sunny.3 mph87%30.04 "Hg20 mi
3:00 PM41 °FMostly cloudy.2 mph87%30.04 "Hg15 mi
2:00 PM46 °FPartly sunny.5 mph82%30.03 "Hg20 mi
1:00 PM45 °FPartly sunny.2 mph81%30.04 "Hg15 mi
12:00 PM45 °FPartly sunny.3 mph81%30.03 "Hg15 mi
11:00 AM39 °FPartly sunny.3 mph93%30.03 "Hg15 mi
10:00 AM41 °FPartly sunny.3 mph87%30.03 "Hg15 mi
9:00 AM37 °FPartly sunny.2 mph93%30.05 "Hg15 mi
8:00 AM39 °FMostly cloudy.3 mph87%30.04 "Hg15 mi
7:00 AM39 °FMostly cloudy.7 mph93%30.03 "Hg15 mi
Weather by CustomWeather, © 2014

See weather overviewHow to use our weather pages